Weather in Yevpraksino

Russia / Astrakhan Oblast     46°14′13″N   48°11′33″E
temp.,
°C
wind,
m/s
gust,
m/s
humid.,
%
clouds,
%
prec.,
mm/h
press.,
hPa
HPBL,
m
19 september, sun
sun1901:00+12ese22735 0.0 102028
04:00+11e33684 0.0 102034
07:00+12ene3666100 0.0 1020108
10:00+19ese7842100 0.0 10201207
13:00+21ese7838100 0.0 10191379
16:00+20ese884096 0.0 10191222
19:00+16e61059100 0.0 1018456
22:00+15e5116430 0.0 1018354
20 september, mon
mon2001:00+14e512695 0.0 1017320
04:00+15e512745 0.0 1016296
07:00+15e5127565 0.0 1015302
10:00+23ese674197 0.0 1015691
13:00+27se553264 0.0 10141457
16:00+24se6647100 0.1 10141103
19:00+19ese3363100 0.0 101547
22:00+18ese347299 0.0 101677
21 september, tue
tue2101:00+17ssw2277100 0.6 101635
04:00+17sw2272100 0.6 101632
07:00+18ne347397 0.1 101571
10:00+23ne335293 0.1 1016541
13:00+27e55327 0.0 10151956
16:00+25ese6632100 0.0 10141096
19:00+18ese595475 0.0 1015232
22:00+16ese387713 0.0 1015162
22 september, wed
wed2201:00+16ese3876100 0.0 1014160
04:00+15e3379100 0.0 101343
07:00+16e2275100 0.0 101440
10:00+21s2450100 0.0 1014430
13:00+27ene1328100 0.0 10141614
16:00+25ese7726100 0.0 1013878
19:00+19ese4743100 0.0 1014230
22:00+18ne3647100 0.0 1014126
23 september, thu
thu2301:00+19ne4846100 0.0 1013204
04:00+15ne81381100 1.6 1013274
07:00+17ene6126999 0.0 1013388
10:00+20ese7951100 0.0 1013633
13:00+22se9115726 0.0 10131049
16:00+22ese810315 0.0 10121028
19:00+18e6134473 0.0 1012459
22:00+18e71454100 0.0 1011504